Flag for Portugal Weather past 2 weeks in Amadora, Portugal

64 °F

Passing clouds.

Feels Like: 64 °F
Forecast: 65 / 71 °F
Wind: 8 mph from Southwest

Location: Lisbon Portela Airport

Current Time: Oct 10, 2015 at 9:22:06 PM

Latest Report: Oct 10, 2015 at 9:00 PM

Visibility: 6 mi

Pressure: 29.71 "Hg

Humidity: 94%

Dew point: 63 °F

Location of AmadoraLocation

Historic Weather in Amadora — Graph


Amadora temperature yesterday

Maximum temperature yesterday: 68 °F (at 1:00 PM)
Minimum temperature yesterday: 54 °F (at 7:30 AM)
Average temperature yesterday: 62 °F

Past Weeks' High & Low Weather Summary

High88 °F (Sep 27, 4:00 PM)100% (Oct 5, 6:00 PM)30.21 "Hg (Oct 5, 6:00 PM)
Low54 °F (Oct 9, 7:30 AM)26% (Sep 28, 3:30 PM)29.68 "Hg (Oct 10, 2:30 PM)
Average67 °F73%30.00 "Hg
* Reported Sep 25 8:00 PM — Oct 10 8:00 PM, Amadora, Weather by CustomWeather, © 2015

Note: Actual official high and low records may vary slightly from our data, if they occured in-between our weather recording intervals... More about our weather records


Amadora weather history for previous 24 hours

Time TempWeatherWind HumidityBarometerVisibility
8:00 PM
Sat, Oct 10
66 °FDrizzle. Broken clouds.12 mph94%29.71 "Hg6 mi
7:30 PM66 °FPartly sunny.12 mph94%29.71 "HgN/A
7:00 PM66 °FBroken clouds.10 mph94%29.71 "HgN/A
6:30 PM66 °FPartly sunny.12 mph94%29.71 "HgN/A
6:00 PM66 °FPartly sunny.8 mph94%29.68 "HgN/A
5:30 PM66 °FScattered showers. Broken clouds.9 mph94%29.68 "HgN/A
5:00 PM66 °FDrizzle. Partly sunny.12 mph94%29.68 "Hg4 mi
4:30 PM66 °FDrizzle. Fog.13 mph94%29.68 "Hg2 mi
4:00 PM66 °FDrizzle. Fog.15 mph94%29.68 "Hg1 mi
3:30 PM66 °FDrizzle. Fog.15 mph94%29.68 "Hg2 mi
3:00 PM64 °FDrizzle. Fog.16 mph100%29.68 "Hg1 mi
2:30 PM64 °FLight rain. Partly sunny.14 mph100%29.68 "Hg6 mi
2:00 PM64 °FLight rain. Partly sunny.13 mph94%29.71 "Hg5 mi
1:30 PM64 °FLight rain. Partly sunny.9 mph94%29.71 "Hg4 mi
1:00 PM64 °FDrizzle. Fog.8 mph94%29.74 "Hg1 mi
12:30 PM63 °FDrizzle. Fog.7 mph100%29.74 "Hg2 mi
12:00 PM63 °FDrizzle. Fog.6 mph100%29.74 "Hg2 mi
11:30 AM63 °FLight rain. Fog.6 mph94%29.74 "Hg2 mi
11:00 AM61 °FDrizzle. Fog.7 mph100%29.74 "Hg1 mi
10:30 AM61 °FDrizzle. Fog.6 mph100%29.74 "Hg2 mi
10:00 AM61 °FDrizzle. Fog.6 mph100%29.74 "Hg2 mi
9:30 AM61 °FDrizzle. Fog.6 mph100%29.74 "Hg3 mi
9:00 AM61 °FDrizzle. Broken clouds.6 mph94%29.74 "Hg4 mi
8:30 AM61 °FDrizzle. Fog.9 mph94%29.71 "Hg2 mi
8:00 AM61 °FFog.8 mph94%29.74 "Hg2 mi
7:30 AM61 °FDrizzle. Fog.9 mph94%29.74 "Hg2 mi
7:00 AM61 °FPassing clouds.10 mph94%29.74 "Hg3 mi
6:30 AM61 °FPassing clouds.9 mph94%29.74 "Hg3 mi
6:00 AM61 °FPassing clouds.12 mph94%29.74 "Hg3 mi
5:30 AM61 °FPassing clouds.12 mph94%29.74 "Hg6 mi
5:00 AM61 °FPassing clouds.14 mph94%29.74 "Hg4 mi
4:30 AM63 °FPassing clouds.13 mph88%29.77 "Hg4 mi
4:00 AM63 °FPartly cloudy.12 mph88%29.77 "Hg5 mi
3:30 AM63 °FPassing clouds.12 mph88%29.77 "Hg4 mi
3:00 AM63 °FPassing clouds.12 mph88%29.77 "HgN/A
2:30 AM63 °FPassing clouds.10 mph88%29.80 "HgN/A
2:00 AM63 °FPassing clouds.10 mph88%29.80 "HgN/A
1:30 AM63 °FPassing clouds.13 mph88%29.80 "HgN/A
1:00 AM63 °FLight rain. Passing clouds.8 mph88%29.80 "HgN/A
12:30 AM63 °FPassing clouds.6 mph83%29.83 "HgN/A
12:00 AM63 °FPassing clouds.8 mph88%29.83 "HgN/A
11:30 PM
Fri, Oct 9
63 °FClear.8 mph83%29.83 "Hg10 mi
11:00 PM63 °FClear.9 mph83%29.83 "Hg10 mi
10:00 PM63 °FClear.9 mph88%29.83 "Hg10 mi
9:30 PM63 °FClear.8 mph88%29.83 "Hg10 mi
9:00 PM63 °FClear.12 mph83%29.83 "Hg10 mi
Weather by CustomWeather, © 2015

See weather overviewHow to use our weather pages